sat.trackr.live / text

‹ back to catalog

ONEWEB-0344

NORAD 49210 · 2021-083AA

PAYLOAD ACTIVE UNKNOWN

§ Identity

Operator
Country
UK
Launch date
2021-09-14
Launch site
TYMSC
Launch vehicle
Mass (kg)
RCS (m²)

Purposes: comms

External: N2YO · Heavens-Above · Gunter

§ Orbital elements

Epoch: 2026-09-12T21:02:03.880320Z

Period
109.63 min
Inclination
87.8923°
Eccentricity
0.0001519
Mean motion
13.13469602 rev/d
Perigee alt
1,208.6 km
Apogee alt
1,210.9 km
Semi-major
7,587.9 km
B*
2.9262e-4
RAAN
302.7916°
Arg perigee
102.6227°
Mean anomaly
257.5072°
Rev number
24,240

§ Raw data

ONEWEB-03441 49210U 21083AA  26255.87643380  .00000120  00000+0  29262-3 0  99952 49210  87.8923 302.7916 0001519 102.6227 257.5072 13.13469602242404

JSON: /api/v1/satellites/49210 · /tle

For live sub-satellite position, see the globe view (requires WebGL).

§ Visibility from observer

Set your observer location to see the next 7 days of passes ≥ 10°. The values pass through the URL so the page stays shareable.

No JS? Fill the form by hand. The geolocation button needs JavaScript.